User: anonymous   Login
Location: Unspecified
(0.0000°N, 0.0000°E)
Time: 13:44:16
(UTC+01:00)
Language:

Cosmos 1933 - Orbit

View from above orbital plane
View from above orbital plane
View from above satellite
View from above satellite

Ground track
Ground track

The orbit data is extracted from the following two-line orbital elements,

1 18958U 88020A   14353.96851495  .00003685  00000-0  28329-3 0  5065
2 18958 082.5326 261.2774 0013428 130.6221 229.6174 15.01383062454846
Epoch (UTC): 19 December 2014 23:14:39
Eccentricity: 0.0013428
inclination: 82.5326°
perigee height: 553 km
apogee height: 572 km
right ascension of ascending node: 261.2774°
argument of perigee: 130.6221°
revolutions per day: 15.01383062
mean anomaly at epoch: 229.6174°
orbit number at epoch: 45484

The dashed part of the orbit path shows where the satellite is in the earth's shadow,  

DLR